Simultaneous Nadir Overpasses (SNOs) Predictions

Prediction of SNOs between AQUA and NOAA-19 Satellite Orbit:

Table of predicted SNOs for the next 14.0 days since TLE Epoch: 8/30/2014
Index Date (AQUA) Time (AQUA) Lat,Lon (AQUA) SZA (AQUA ) Date (NOAA-19) Time (NOAA-19) Lat,Lon (NOAA-19) SZA (NOAA-19 ) Distance(km) Time Diff (sec)
1 08/31/2014 06:16:17 78.04, 67.23 69.99 08/31/2014 06:15:33 78.05, 67.13 70.02 2.63 44
2 08/31/2014 07:05:30 -77.46,-122.64 110.71 08/31/2014 07:06:20 -77.46,-122.61 110.73 0.95 50
3 09/02/2014 11:01:29 80.14, -17.09 73.75 09/02/2014 11:00:16 79.92, -18.10 73.69 31.41 73
4 09/02/2014 11:49:55 -77.75, 165.08 109.58 09/02/2014 11:50:14 -77.76, 164.98 109.57 2.67 19
5 09/04/2014 16:34:16 -77.87, 93.49 108.64 09/04/2014 16:34:03 -77.86, 93.52 108.64 0.91 13
6 09/06/2014 21:18:39 -78.08, 21.42 107.56 09/06/2014 21:17:55 -78.09, 21.38 107.54 0.97 44
7 09/06/2014 22:07:56 77.63,-168.94 71.89 09/06/2014 22:08:47 77.64,-169.00 71.89 1.54 51
8 09/09/2014 02:03:46 -80.03, -61.70 104.04 09/09/2014 02:02:32 -79.81, -62.46 104.12 28.10 74
9 09/09/2014 02:52:16 77.74, 119.54 72.83 09/09/2014 02:52:36 77.73, 119.60 72.82 1.38 20




NCC Satellite Simultaneous Nadir Overpasses (SNOs) Prediction Service
